Time,TemperatureF,DewpointF,PressureIn,WindDirection,WindDirectionDegrees,WindSpeedMPH,WindSpeedGustMPH,Humidity,HourlyPrecipIn,Conditions,Clouds,dailyrainin,SoftwareType,DateUTC
2013-10-27 00:01:00,29.6,24.8,30.03,NW,309,0.0,0.0,82,0.00,,,0.00,vanprod-2.3,2013-10-27 05:01:00,
2013-10-27 00:06:00,29.6,24.8,30.03,NW,309,1.0,2.0,82,0.00,,,0.00,vanprod-2.3,2013-10-27 05:06:00,
2013-10-27 00:11:00,29.6,24.8,30.02,NW,309,0.0,0.0,82,0.00,,,0.00,vanprod-2.3,2013-10-27 05:11:00,
2013-10-27 00:16:00,29.6,24.8,30.02,NW,309,0.0,0.0,82,0.00,,,0.00,vanprod-2.3,2013-10-27 05:16:00,
2013-10-27 00:21:00,29.6,24.8,30.02,NW,309,0.0,0.0,82,0.00,,,0.00,vanprod-2.3,2013-10-27 05:21:00,
2013-10-27 00:26:00,29.3,24.5,30.01,NW,309,1.0,2.0,82,0.00,,,0.00,vanprod-2.3,2013-10-27 05:26:00,
2013-10-27 00:31:00,29.2,24.4,30.01,NW,309,0.0,0.0,82,0.00,,,0.00,vanprod-2.3,2013-10-27 05:31:00,
2013-10-27 00:36:00,29.0,24.5,30.01,NW,309,0.0,2.0,83,0.00,,,0.00,vanprod-2.3,2013-10-27 05:36:00,
2013-10-27 00:41:00,28.9,24.4,30.00,NW,309,0.0,0.0,83,0.00,,,0.00,vanprod-2.3,2013-10-27 05:41:00,
2013-10-27 00:46:00,28.8,24.3,30.00,NW,309,0.0,2.0,83,0.00,,,0.00,vanprod-2.3,2013-10-27 05:46:00,
2013-10-27 00:51:00,28.6,24.1,30.00,NW,309,0.0,2.0,83,0.00,,,0.00,vanprod-2.3,2013-10-27 05:51:00,
2013-10-27 00:56:00,28.6,24.1,30.00,NW,309,0.0,2.0,83,0.00,,,0.00,vanprod-2.3,2013-10-27 05:56:00,
2013-10-27 01:01:00,28.8,24.3,29.99,NW,309,0.0,1.0,83,0.00,,,0.00,vanprod-2.3,2013-10-27 06:01:00,
2013-10-27 01:06:00,28.8,24.3,29.99,NW,309,1.0,1.0,83,0.00,,,0.00,vanprod-2.3,2013-10-27 06:06:00,
2013-10-27 01:11:00,28.8,24.3,29.98,NW,309,1.0,2.0,83,0.00,,,0.00,vanprod-2.3,2013-10-27 06:11:00,
2013-10-27 01:16:00,28.8,24.3,29.98,NW,309,2.0,2.0,83,0.00,,,0.00,vanprod-2.3,2013-10-27 06:16:00,
2013-10-27 01:21:00,28.8,24.3,29.98,NW,309,2.0,2.0,83,0.00,,,0.00,vanprod-2.3,2013-10-27 06:21:00,
2013-10-27 01:26:00,28.6,24.1,29.98,NW,309,2.0,2.0,83,0.00,,,0.00,vanprod-2.3,2013-10-27 06:26:00,
2013-10-27 01:31:00,28.5,24.0,29.98,NW,309,1.0,2.0,83,0.00,,,0.00,vanprod-2.3,2013-10-27 06:31:00,
2013-10-27 01:36:00,28.5,24.0,29.97,NW,309,1.0,1.0,83,0.00,,,0.00,vanprod-2.3,2013-10-27 06:36:00,
2013-10-27 01:41:00,28.5,24.0,29.97,NW,309,1.0,2.0,83,0.00,,,0.00,vanprod-2.3,2013-10-27 06:41:00,
2013-10-27 01:46:00,28.6,24.1,29.97,NW,308,1.0,1.0,83,0.00,,,0.00,vanprod-2.3,2013-10-27 06:46:00,
2013-10-27 01:51:00,28.6,24.1,29.97,NW,308,1.0,1.0,83,0.00,,,0.00,vanprod-2.3,2013-10-27 06:51:00,
2013-10-27 01:56:00,28.6,24.1,29.97,NW,308,1.0,3.0,83,0.00,,,0.00,vanprod-2.3,2013-10-27 06:56:00,
2013-10-27 02:01:00,28.6,24.1,29.96,NW,308,1.0,2.0,83,0.00,,,0.00,vanprod-2.3,2013-10-27 07:01:00,
2013-10-27 02:06:00,28.6,24.1,29.96,NW,308,1.0,1.0,83,0.00,,,0.00,vanprod-2.3,2013-10-27 07:06:00,
2013-10-27 02:11:00,28.6,24.1,29.96,NW,308,1.0,2.0,83,0.00,,,0.00,vanprod-2.3,2013-10-27 07:11:00,
2013-10-27 02:16:00,28.5,24.0,29.96,NW,308,0.0,0.0,83,0.00,,,0.00,vanprod-2.3,2013-10-27 07:16:00,
2013-10-27 02:21:00,28.5,24.0,29.96,NW,308,0.0,0.0,83,0.00,,,0.00,vanprod-2.3,2013-10-27 07:21:00,
2013-10-27 02:26:00,28.6,24.1,29.96,NW,308,0.0,0.0,83,0.00,,,0.00,vanprod-2.3,2013-10-27 07:26:00,
2013-10-27 02:31:00,28.6,24.1,29.96,NW,308,0.0,0.0,83,0.00,,,0.00,vanprod-2.3,2013-10-27 07:31:00,
2013-10-27 02:36:00,28.8,24.3,29.96,NW,308,0.0,0.0,83,0.00,,,0.00,vanprod-2.3,2013-10-27 07:36:00,
2013-10-27 02:41:00,28.9,24.4,29.96,NW,308,1.0,0.0,83,0.00,,,0.00,vanprod-2.3,2013-10-27 07:41:00,
2013-10-27 02:46:00,28.9,24.4,29.95,NW,308,0.0,0.0,83,0.00,,,0.00,vanprod-2.3,2013-10-27 07:46:00,
2013-10-27 02:51:00,29.0,24.2,29.95,WSW,253,0.0,1.0,82,0.00,,,0.00,vanprod-2.3,2013-10-27 07:51:00,
2013-10-27 02:56:00,29.2,24.4,29.95,WSW,253,2.0,2.0,82,0.00,,,0.00,vanprod-2.3,2013-10-27 07:56:00,
2013-10-27 03:01:00,29.5,24.4,29.94,WSW,246,2.0,4.0,81,0.00,,,0.00,vanprod-2.3,2013-10-27 08:01:00,
2013-10-27 03:06:00,29.5,24.4,29.94,WSW,239,2.0,3.0,81,0.00,,,0.00,vanprod-2.3,2013-10-27 08:06:00,
2013-10-27 03:11:00,29.3,24.2,29.93,SW,230,1.0,1.0,81,0.00,,,0.00,vanprod-2.3,2013-10-27 08:11:00,
2013-10-27 03:16:00,29.0,23.9,29.93,SW,230,1.0,1.0,81,0.00,,,0.00,vanprod-2.3,2013-10-27 08:16:00,
2013-10-27 03:21:00,28.9,24.1,29.93,SW,230,2.0,2.0,82,0.00,,,0.00,vanprod-2.3,2013-10-27 08:21:00,
2013-10-27 03:26:00,28.9,24.1,29.93,SW,230,2.0,2.0,82,0.00,,,0.00,vanprod-2.3,2013-10-27 08:26:00,
2013-10-27 03:31:00,29.0,24.2,29.93,SW,230,1.0,1.0,82,0.00,,,0.00,vanprod-2.3,2013-10-27 08:31:00,
2013-10-27 03:36:00,29.0,24.2,29.92,SW,230,2.0,2.0,82,0.00,,,0.00,vanprod-2.3,2013-10-27 08:36:00,
2013-10-27 03:41:00,29.2,24.4,29.92,SW,230,2.0,2.0,82,0.00,,,0.00,vanprod-2.3,2013-10-27 08:41:00,
2013-10-27 03:46:00,29.0,24.2,29.92,SW,230,1.0,2.0,82,0.00,,,0.00,vanprod-2.3,2013-10-27 08:46:00,
2013-10-27 03:51:00,29.2,24.4,29.92,SW,230,1.0,2.0,82,0.00,,,0.00,vanprod-2.3,2013-10-27 08:51:00,
2013-10-27 03:56:00,29.3,24.5,29.91,SW,222,2.0,3.0,82,0.00,,,0.00,vanprod-2.3,2013-10-27 08:56:00,
2013-10-27 04:01:00,29.5,24.7,29.91,SSW,200,3.0,6.0,82,0.00,,,0.00,vanprod-2.3,2013-10-27 09:01:00,
2013-10-27 04:06:00,29.6,24.8,29.90,SSW,196,2.0,2.0,82,0.00,,,0.00,vanprod-2.3,2013-10-27 09:06:00,
2013-10-27 04:11:00,29.6,24.8,29.90,SSW,196,1.0,2.0,82,0.00,,,0.00,vanprod-2.3,2013-10-27 09:11:00,
2013-10-27 04:16:00,29.6,24.8,29.90,SSW,196,2.0,2.0,82,0.00,,,0.00,vanprod-2.3,2013-10-27 09:16:00,
2013-10-27 04:21:00,29.9,25.1,29.90,SSW,195,2.0,3.0,82,0.00,,,0.00,vanprod-2.3,2013-10-27 09:21:00,
2013-10-27 04:26:00,30.1,25.3,29.89,South,175,2.0,3.0,82,0.00,,,0.00,vanprod-2.3,2013-10-27 09:26:00,
2013-10-27 04:31:00,30.2,25.1,29.89,South,174,2.0,0.0,81,0.00,,,0.00,vanprod-2.3,2013-10-27 09:31:00,
2013-10-27 04:36:00,30.2,25.1,29.89,South,174,1.0,2.0,81,0.00,,,0.00,vanprod-2.3,2013-10-27 09:36:00,
2013-10-27 04:41:00,30.1,25.3,29.89,South,174,1.0,1.0,82,0.00,,,0.00,vanprod-2.3,2013-10-27 09:41:00,
2013-10-27 04:46:00,30.2,25.4,29.89,South,174,1.0,0.0,82,0.00,,,0.00,vanprod-2.3,2013-10-27 09:46:00,
2013-10-27 04:51:00,30.4,25.6,29.89,South,174,1.0,0.0,82,0.00,,,0.00,vanprod-2.3,2013-10-27 09:51:00,
2013-10-27 04:56:00,30.5,25.7,29.89,South,174,2.0,2.0,82,0.00,,,0.00,vanprod-2.3,2013-10-27 09:56:00,
2013-10-27 05:01:00,30.5,25.4,29.89,South,174,2.0,2.0,81,0.00,,,0.00,vanprod-2.3,2013-10-27 10:01:00,
2013-10-27 05:06:00,30.7,25.6,29.89,South,174,1.0,3.0,81,0.00,,,0.00,vanprod-2.3,2013-10-27 10:06:00,
2013-10-27 05:11:00,30.7,25.9,29.88,South,174,1.0,2.0,82,0.00,,,0.00,vanprod-2.3,2013-10-27 10:11:00,
2013-10-27 05:16:00,30.5,25.7,29.88,South,172,1.0,1.0,82,0.00,,,0.00,vanprod-2.3,2013-10-27 10:16:00,
2013-10-27 05:21:00,30.5,25.7,29.88,South,171,2.0,2.0,82,0.00,,,0.00,vanprod-2.3,2013-10-27 10:21:00,
2013-10-27 05:26:00,30.4,25.6,29.87,South,171,1.0,2.0,82,0.00,,,0.00,vanprod-2.3,2013-10-27 10:26:00,
2013-10-27 05:31:00,30.4,25.6,29.87,South,171,2.0,2.0,82,0.00,,,0.00,vanprod-2.3,2013-10-27 10:31:00,
2013-10-27 05:36:00,30.5,25.7,29.87,South,171,2.0,2.0,82,0.00,,,0.00,vanprod-2.3,2013-10-27 10:36:00,
2013-10-27 05:41:00,30.4,25.6,29.87,South,169,2.0,2.0,82,0.00,,,0.00,vanprod-2.3,2013-10-27 10:41:00,
2013-10-27 05:46:00,30.2,25.4,29.87,South,169,2.0,2.0,82,0.00,,,0.00,vanprod-2.3,2013-10-27 10:46:00,
2013-10-27 05:51:00,30.2,25.7,29.86,South,169,2.0,2.0,83,0.00,,,0.00,vanprod-2.3,2013-10-27 10:51:00,
2013-10-27 05:56:00,30.2,25.7,29.86,South,169,2.0,2.0,83,0.00,,,0.00,vanprod-2.3,2013-10-27 10:56:00,
2013-10-27 06:01:00,30.1,25.6,29.86,South,169,3.0,4.0,83,0.00,,,0.00,vanprod-2.3,2013-10-27 11:01:00,
2013-10-27 06:06:00,30.1,25.6,29.86,South,171,2.0,3.0,83,0.00,,,0.00,vanprod-2.3,2013-10-27 11:06:00,
2013-10-27 06:11:00,30.2,25.7,29.85,South,171,2.0,2.0,83,0.00,,,0.00,vanprod-2.3,2013-10-27 11:11:00,
2013-10-27 06:16:00,30.4,25.9,29.85,South,171,1.0,1.0,83,0.00,,,0.00,vanprod-2.3,2013-10-27 11:16:00,
2013-10-27 06:21:00,30.4,25.9,29.85,South,171,2.0,3.0,83,0.00,,,0.00,vanprod-2.3,2013-10-27 11:21:00,
2013-10-27 06:26:00,30.4,25.9,29.84,South,171,2.0,2.0,83,0.00,,,0.00,vanprod-2.3,2013-10-27 11:26:00,
2013-10-27 06:31:00,30.2,25.4,29.84,South,171,3.0,3.0,82,0.00,,,0.00,vanprod-2.3,2013-10-27 11:31:00,
2013-10-27 06:36:00,30.2,25.4,29.84,South,171,3.0,5.0,82,0.00,,,0.00,vanprod-2.3,2013-10-27 11:36:00,
2013-10-27 06:41:00,30.1,25.6,29.83,South,171,3.0,3.0,83,0.00,,,0.00,vanprod-2.3,2013-10-27 11:41:00,
2013-10-27 06:46:00,29.9,25.4,29.83,South,171,2.0,3.0,83,0.00,,,0.00,vanprod-2.3,2013-10-27 11:46:00,
2013-10-27 06:51:00,29.8,25.3,29.82,South,171,2.0,2.0,83,0.00,,,0.00,vanprod-2.3,2013-10-27 11:51:00,
2013-10-27 06:56:00,29.8,25.6,29.82,South,171,3.0,3.0,84,0.00,,,0.00,vanprod-2.3,2013-10-27 11:56:00,
2013-10-27 07:01:00,29.8,25.6,29.82,South,171,2.0,2.0,84,0.00,,,0.00,vanprod-2.3,2013-10-27 12:01:00,
2013-10-27 07:06:00,29.9,25.7,29.82,South,171,2.0,2.0,84,0.00,,,0.00,vanprod-2.3,2013-10-27 12:06:00,
2013-10-27 07:11:00,30.1,25.9,29.82,South,171,1.0,2.0,84,0.00,,,0.00,vanprod-2.3,2013-10-27 12:11:00,
2013-10-27 07:16:00,30.4,25.9,29.82,South,171,1.0,2.0,83,0.00,,,0.00,vanprod-2.3,2013-10-27 12:16:00,
2013-10-27 07:21:00,30.7,26.2,29.82,South,171,1.0,1.0,83,0.00,,,0.00,vanprod-2.3,2013-10-27 12:21:00,
2013-10-27 07:26:00,30.8,26.3,29.81,South,171,2.0,2.0,83,0.00,,,0.00,vanprod-2.3,2013-10-27 12:26:00,
2013-10-27 07:31:00,31.0,26.2,29.81,South,171,2.0,2.0,82,0.00,,,0.00,vanprod-2.3,2013-10-27 12:31:00,
2013-10-27 07:36:00,31.0,26.2,29.81,South,171,2.0,2.0,82,0.00,,,0.00,vanprod-2.3,2013-10-27 12:36:00,
2013-10-27 07:41:00,30.8,26.0,29.81,South,171,2.0,2.0,82,0.00,,,0.00,vanprod-2.3,2013-10-27 12:41:00,
2013-10-27 07:46:00,30.8,26.0,29.81,South,171,2.0,3.0,82,0.00,,,0.00,vanprod-2.3,2013-10-27 12:46:00,
2013-10-27 07:51:00,30.7,25.9,29.81,South,171,2.0,3.0,82,0.00,,,0.00,vanprod-2.3,2013-10-27 12:51:00,
2013-10-27 07:56:00,30.7,25.9,29.81,South,171,2.0,2.0,82,0.00,,,0.00,vanprod-2.3,2013-10-27 12:56:00,
2013-10-27 08:01:00,30.8,26.0,29.81,South,171,2.0,5.0,82,0.00,,,0.00,vanprod-2.3,2013-10-27 13:01:00,
2013-10-27 08:06:00,31.0,26.2,29.81,South,171,3.0,3.0,82,0.00,,,0.00,vanprod-2.3,2013-10-27 13:06:00,
2013-10-27 08:11:00,31.1,26.3,29.81,South,170,4.0,4.0,82,0.00,,,0.00,vanprod-2.3,2013-10-27 13:11:00,
2013-10-27 08:16:00,31.1,26.0,29.81,SSE,168,2.0,3.0,81,0.00,,,0.00,vanprod-2.3,2013-10-27 13:16:00,
2013-10-27 08:21:00,31.0,26.2,29.81,South,169,3.0,3.0,82,0.00,,,0.00,vanprod-2.3,2013-10-27 13:21:00,
2013-10-27 08:26:00,30.8,26.0,29.81,SSE,168,3.0,3.0,82,0.00,,,0.00,vanprod-2.3,2013-10-27 13:26:00,
2013-10-27 08:31:00,30.8,26.0,29.81,South,169,3.0,3.0,82,0.00,,,0.00,vanprod-2.3,2013-10-27 13:31:00,
2013-10-27 08:36:00,31.0,26.2,29.81,South,169,2.0,2.0,82,0.00,,,0.00,vanprod-2.3,2013-10-27 13:36:00,
2013-10-27 08:41:00,31.0,26.2,29.81,South,169,1.0,2.0,82,0.00,,,0.00,vanprod-2.3,2013-10-27 13:41:00,
2013-10-27 08:46:00,31.1,26.3,29.81,South,169,1.0,1.0,82,0.00,,,0.00,vanprod-2.3,2013-10-27 13:46:00,
2013-10-27 08:51:00,31.4,26.6,29.81,South,169,1.0,0.0,82,0.00,,,0.00,vanprod-2.3,2013-10-27 13:51:00,
2013-10-27 08:56:00,31.7,26.5,29.81,South,169,0.0,0.0,81,0.00,,,0.00,vanprod-2.3,2013-10-27 13:56:00,
2013-10-27 09:01:00,32.0,26.8,29.81,South,169,0.0,1.0,81,0.00,,,0.00,vanprod-2.3,2013-10-27 14:01:00,
2013-10-27 09:06:00,32.6,27.1,29.81,South,169,1.0,3.0,80,0.00,,,0.00,vanprod-2.3,2013-10-27 14:06:00,
2013-10-27 09:11:00,33.0,27.2,29.81,South,169,0.0,0.0,79,0.00,,,0.00,vanprod-2.3,2013-10-27 14:11:00,
2013-10-27 09:16:00,33.3,27.5,29.81,South,169,0.0,0.0,79,0.00,,,0.00,vanprod-2.3,2013-10-27 14:16:00,
2013-10-27 09:21:00,33.8,28.0,29.81,South,169,0.0,0.0,79,0.00,,,0.00,vanprod-2.3,2013-10-27 14:21:00,
2013-10-27 09:26:00,34.4,27.9,29.81,South,169,1.0,0.0,77,0.00,,,0.00,vanprod-2.3,2013-10-27 14:26:00,
2013-10-27 09:31:00,35.0,27.9,29.81,SSE,165,1.0,0.0,75,0.00,,,0.00,vanprod-2.3,2013-10-27 14:31:00,
2013-10-27 09:36:00,35.5,28.0,29.81,SSE,165,0.0,0.0,74,0.00,,,0.00,vanprod-2.3,2013-10-27 14:36:00,
2013-10-27 09:41:00,36.1,28.6,29.83,SSE,165,3.0,3.0,74,0.00,,,0.00,vanprod-2.3,2013-10-27 14:41:00,
2013-10-27 09:46:00,36.7,28.9,29.83,SSE,165,1.0,0.0,73,0.00,,,0.00,vanprod-2.3,2013-10-27 14:46:00,
2013-10-27 09:51:00,37.1,28.9,29.83,SSE,165,1.0,0.0,72,0.00,,,0.00,vanprod-2.3,2013-10-27 14:51:00,
2013-10-27 09:56:00,37.5,29.0,29.83,SSE,165,0.0,0.0,71,0.00,,,0.00,vanprod-2.3,2013-10-27 14:56:00,
2013-10-27 10:01:00,37.8,28.9,29.83,SSE,165,0.0,0.0,70,0.00,,,0.00,vanprod-2.3,2013-10-27 15:01:00,
2013-10-27 10:06:00,38.1,29.2,29.82,SSE,165,0.0,0.0,70,0.00,,,0.00,vanprod-2.3,2013-10-27 15:06:00,
2013-10-27 10:11:00,38.4,29.5,29.82,SSE,165,1.0,3.0,70,0.00,,,0.00,vanprod-2.3,2013-10-27 15:11:00,
2013-10-27 10:16:00,38.8,29.9,29.82,SSE,165,0.0,0.0,70,0.00,,,0.00,vanprod-2.3,2013-10-27 15:16:00,
2013-10-27 10:21:00,39.4,30.8,29.83,SSE,165,0.0,0.0,71,0.00,,,0.00,vanprod-2.3,2013-10-27 15:21:00,
2013-10-27 10:26:00,40.0,30.7,29.83,SSE,165,0.0,0.0,69,0.00,,,0.00,vanprod-2.3,2013-10-27 15:26:00,
2013-10-27 10:31:00,40.6,30.9,29.83,SSE,165,2.0,3.0,68,0.00,,,0.00,vanprod-2.3,2013-10-27 15:31:00,
2013-10-27 10:36:00,41.1,30.6,29.83,SSE,166,0.0,0.0,66,0.00,,,0.00,vanprod-2.3,2013-10-27 15:36:00,
2013-10-27 10:41:00,41.8,30.9,29.83,SSE,166,1.0,0.0,65,0.00,,,0.00,vanprod-2.3,2013-10-27 15:41:00,
2013-10-27 10:46:00,42.4,30.7,29.83,SSE,167,1.0,2.0,63,0.00,,,0.00,vanprod-2.3,2013-10-27 15:46:00,
2013-10-27 10:51:00,43.1,31.0,29.83,SSE,167,0.0,2.0,62,0.00,,,0.00,vanprod-2.3,2013-10-27 15:51:00,
2013-10-27 10:56:00,43.7,31.1,29.83,South,187,2.0,3.0,61,0.00,,,0.00,vanprod-2.3,2013-10-27 15:56:00,
2013-10-27 11:01:00,44.1,31.1,29.83,West,268,1.0,0.0,60,0.00,,,0.00,vanprod-2.3,2013-10-27 16:01:00,
2013-10-27 11:06:00,44.6,32.0,29.83,West,271,2.0,2.0,61,0.00,,,0.00,vanprod-2.3,2013-10-27 16:06:00,
2013-10-27 11:11:00,45.0,30.7,29.83,West,271,0.0,0.0,57,0.00,,,0.00,vanprod-2.3,2013-10-27 16:11:00,
2013-10-27 11:16:00,45.5,32.0,29.83,West,271,1.0,4.0,59,0.00,,,0.00,vanprod-2.3,2013-10-27 16:16:00,
2013-10-27 11:21:00,45.7,31.8,29.83,West,271,1.0,2.0,58,0.00,,,0.00,vanprod-2.3,2013-10-27 16:21:00,
2013-10-27 11:26:00,46.6,31.8,29.83,West,272,2.0,0.0,56,0.00,,,0.00,vanprod-2.3,2013-10-27 16:26:00,
2013-10-27 11:31:00,47.4,32.1,29.83,West,272,0.0,3.0,55,0.00,,,0.00,vanprod-2.3,2013-10-27 16:31:00,
2013-10-27 11:36:00,48.3,32.4,29.83,WNW,294,3.0,4.0,54,0.00,,,0.00,vanprod-2.3,2013-10-27 16:36:00,
2013-10-27 11:41:00,48.9,32.1,29.83,WNW,294,1.0,2.0,52,0.00,,,0.00,vanprod-2.3,2013-10-27 16:41:00,
2013-10-27 11:46:00,49.3,32.0,29.83,WNW,294,2.0,6.0,51,0.00,,,0.00,vanprod-2.3,2013-10-27 16:46:00,
2013-10-27 11:51:00,49.6,32.2,29.82,WNW,302,1.0,2.0,51,0.00,,,0.00,vanprod-2.3,2013-10-27 16:51:00,
2013-10-27 11:56:00,49.9,33.0,29.83,NW,304,1.0,1.0,52,0.00,,,0.00,vanprod-2.3,2013-10-27 16:56:00,
2013-10-27 12:01:00,50.3,32.9,29.83,WNW,302,1.0,1.0,51,0.00,,,0.00,vanprod-2.3,2013-10-27 17:01:00,
2013-10-27 12:06:00,50.6,33.2,29.83,NW,306,3.0,3.0,51,0.00,,,0.00,vanprod-2.3,2013-10-27 17:06:00,
2013-10-27 12:11:00,50.8,32.8,29.83,WSW,243,2.0,0.0,50,0.00,,,0.00,vanprod-2.3,2013-10-27 17:11:00,
2013-10-27 12:16:00,51.1,33.1,29.83,WNW,291,3.0,3.0,50,0.00,,,0.00,vanprod-2.3,2013-10-27 17:16:00,
2013-10-27 12:21:00,51.2,33.2,29.83,NW,308,3.0,3.0,50,0.00,,,0.00,vanprod-2.3,2013-10-27 17:21:00,
2013-10-27 12:26:00,51.5,34.0,29.84,NNW,347,3.0,4.0,51,0.00,,,0.00,vanprod-2.3,2013-10-27 17:26:00,
2013-10-27 12:31:00,51.7,33.7,29.84,North,358,4.0,7.0,50,0.00,,,0.00,vanprod-2.3,2013-10-27 17:31:00,
2013-10-27 12:36:00,51.8,33.8,29.84,North,358,2.0,5.0,50,0.00,,,0.00,vanprod-2.3,2013-10-27 17:36:00,
2013-10-27 12:41:00,52.0,34.0,29.84,North,358,3.0,5.0,50,0.00,,,0.00,vanprod-2.3,2013-10-27 17:41:00,
2013-10-27 12:46:00,51.8,34.3,29.84,North,0,3.0,6.0,51,0.00,,,0.00,vanprod-2.3,2013-10-27 17:46:00,
2013-10-27 12:51:00,52.0,34.0,29.84,North,360,5.0,5.0,50,0.00,,,0.00,vanprod-2.3,2013-10-27 17:51:00,
2013-10-27 12:56:00,52.3,34.2,29.83,North,359,1.0,2.0,50,0.00,,,0.00,vanprod-2.3,2013-10-27 17:56:00,
2013-10-27 13:01:00,53.0,34.4,29.83,North,359,2.0,2.0,49,0.00,,,0.00,vanprod-2.3,2013-10-27 18:01:00,
2013-10-27 13:06:00,53.0,34.9,29.83,NNW,332,2.0,2.0,50,0.00,,,0.00,vanprod-2.3,2013-10-27 18:06:00,
2013-10-27 13:11:00,53.1,35.0,29.83,NNW,332,0.0,2.0,50,0.00,,,0.00,vanprod-2.3,2013-10-27 18:11:00,
2013-10-27 13:16:00,53.3,35.2,29.83,North,0,0.0,3.0,50,0.00,,,0.00,vanprod-2.3,2013-10-27 18:16:00,
2013-10-27 13:21:00,53.6,35.4,29.83,North,11,3.0,3.0,50,0.00,,,0.00,vanprod-2.3,2013-10-27 18:21:00,
2013-10-27 13:26:00,53.6,34.9,29.83,NNE,20,4.0,0.0,49,0.00,,,0.00,vanprod-2.3,2013-10-27 18:26:00,
2013-10-27 13:31:00,53.6,35.4,29.83,North,0,6.0,7.0,50,0.00,,,0.00,vanprod-2.3,2013-10-27 18:31:00,
2013-10-27 13:36:00,53.7,36.0,29.83,North,360,4.0,10.0,51,0.00,,,0.00,vanprod-2.3,2013-10-27 18:36:00,
2013-10-27 13:41:00,53.9,34.7,29.83,North,9,4.0,4.0,48,0.00,,,0.00,vanprod-2.3,2013-10-27 18:41:00,
2013-10-27 13:46:00,53.6,34.9,29.83,NNE,14,5.0,6.0,49,0.00,,,0.00,vanprod-2.3,2013-10-27 18:46:00,
2013-10-27 13:51:00,53.4,35.2,29.83,North,11,3.0,4.0,50,0.00,,,0.00,vanprod-2.3,2013-10-27 18:51:00,
2013-10-27 13:56:00,53.6,35.4,29.84,NNW,347,4.0,6.0,50,0.00,,,0.00,vanprod-2.3,2013-10-27 18:56:00,
2013-10-27 14:01:00,54.0,35.8,29.84,NNE,28,3.0,6.0,50,0.00,,,0.00,vanprod-2.3,2013-10-27 19:01:00,
2013-10-27 14:06:00,53.9,35.2,29.84,NNE,17,6.0,10.0,49,0.00,,,0.00,vanprod-2.3,2013-10-27 19:06:00,
2013-10-27 14:11:00,53.7,35.5,29.84,North,360,6.0,7.0,50,0.00,,,0.00,vanprod-2.3,2013-10-27 19:11:00,
2013-10-27 14:16:00,53.7,35.5,29.84,North,360,3.0,5.0,50,0.00,,,0.00,vanprod-2.3,2013-10-27 19:16:00,
2013-10-27 14:21:00,53.7,35.0,29.84,North,4,5.0,5.0,49,0.00,,,0.00,vanprod-2.3,2013-10-27 19:21:00,
2013-10-27 14:26:00,53.9,35.7,29.84,North,358,3.0,5.0,50,0.00,,,0.00,vanprod-2.3,2013-10-27 19:26:00,
2013-10-27 14:31:00,53.7,35.0,29.84,North,4,7.0,11.0,49,0.00,,,0.00,vanprod-2.3,2013-10-27 19:31:00,
2013-10-27 14:36:00,53.7,35.0,29.84,North,2,8.0,8.0,49,0.00,,,0.00,vanprod-2.3,2013-10-27 19:36:00,
2013-10-27 14:41:00,53.6,34.9,29.84,North,4,5.0,14.0,49,0.00,,,0.00,vanprod-2.3,2013-10-27 19:41:00,
2013-10-27 14:46:00,53.7,35.0,29.84,North,355,6.0,6.0,49,0.00,,,0.00,vanprod-2.3,2013-10-27 19:46:00,
2013-10-27 14:51:00,53.9,36.2,29.84,NNW,336,2.0,2.0,51,0.00,,,0.00,vanprod-2.3,2013-10-27 19:51:00,
2013-10-27 14:56:00,54.0,34.8,29.85,North,353,6.0,6.0,48,0.00,,,0.00,vanprod-2.3,2013-10-27 19:56:00,
2013-10-27 15:01:00,54.2,35.5,29.85,NNE,16,2.0,2.0,49,0.00,,,0.00,vanprod-2.3,2013-10-27 20:01:00,
2013-10-27 15:06:00,54.3,35.0,29.85,North,360,7.0,7.0,48,0.00,,,0.00,vanprod-2.3,2013-10-27 20:06:00,
2013-10-27 15:11:00,54.5,35.2,29.85,North,8,5.0,10.0,48,0.00,,,0.00,vanprod-2.3,2013-10-27 20:11:00,
2013-10-27 15:16:00,54.6,34.8,29.85,North,4,6.0,6.0,47,0.00,,,0.00,vanprod-2.3,2013-10-27 20:16:00,
2013-10-27 15:21:00,54.8,35.0,29.86,North,9,6.0,7.0,47,0.00,,,0.00,vanprod-2.3,2013-10-27 20:21:00,
2013-10-27 15:26:00,54.6,34.8,29.86,NNE,19,7.0,7.0,47,0.00,,,0.00,vanprod-2.3,2013-10-27 20:26:00,
2013-10-27 15:31:00,54.8,34.4,29.86,North,9,7.0,7.0,46,0.00,,,0.00,vanprod-2.3,2013-10-27 20:31:00,
2013-10-27 15:36:00,54.8,34.4,29.86,North,350,5.0,7.0,46,0.00,,,0.00,vanprod-2.3,2013-10-27 20:36:00,
2013-10-27 15:41:00,54.6,34.3,29.86,North,2,7.0,7.0,46,0.00,,,0.00,vanprod-2.3,2013-10-27 20:41:00,
2013-10-27 15:46:00,54.5,34.7,29.87,North,5,7.0,8.0,47,0.00,,,0.00,vanprod-2.3,2013-10-27 20:46:00,
2013-10-27 15:51:00,54.6,34.8,29.87,NNE,27,4.0,4.0,47,0.00,,,0.00,vanprod-2.3,2013-10-27 20:51:00,
2013-10-27 15:56:00,54.6,34.8,29.87,North,360,6.0,6.0,47,0.00,,,0.00,vanprod-2.3,2013-10-27 20:56:00,
2013-10-27 16:01:00,54.5,35.2,29.87,North,0,3.0,3.0,48,0.00,,,0.00,vanprod-2.3,2013-10-27 21:01:00,
2013-10-27 16:06:00,54.5,35.2,29.88,North,354,8.0,8.0,48,0.00,,,0.00,vanprod-2.3,2013-10-27 21:06:00,
2013-10-27 16:11:00,54.3,35.0,29.88,North,10,6.0,6.0,48,0.00,,,0.00,vanprod-2.3,2013-10-27 21:11:00,
2013-10-27 16:16:00,54.5,34.7,29.89,North,357,6.0,6.0,47,0.00,,,0.00,vanprod-2.3,2013-10-27 21:16:00,
2013-10-27 16:21:00,54.3,34.5,29.89,North,354,6.0,6.0,47,0.00,,,0.00,vanprod-2.3,2013-10-27 21:21:00,
2013-10-27 16:26:00,54.5,35.2,29.89,North,4,3.0,6.0,48,0.00,,,0.00,vanprod-2.3,2013-10-27 21:26:00,
2013-10-27 16:31:00,54.5,34.7,29.89,North,5,8.0,8.0,47,0.00,,,0.00,vanprod-2.3,2013-10-27 21:31:00,
2013-10-27 16:36:00,54.3,34.5,29.89,North,4,3.0,4.0,47,0.00,,,0.00,vanprod-2.3,2013-10-27 21:36:00,
2013-10-27 16:41:00,54.5,34.7,29.90,North,4,5.0,0.0,47,0.00,,,0.00,vanprod-2.3,2013-10-27 21:41:00,
2013-10-27 16:46:00,54.8,34.4,29.90,North,8,5.0,8.0,46,0.00,,,0.00,vanprod-2.3,2013-10-27 21:46:00,
2013-10-27 16:51:00,54.8,34.4,29.90,North,360,4.0,4.0,46,0.00,,,0.00,vanprod-2.3,2013-10-27 21:51:00,
2013-10-27 16:56:00,54.6,33.7,29.90,North,3,7.0,7.0,45,0.00,,,0.00,vanprod-2.3,2013-10-27 21:56:00,
2013-10-27 17:01:00,54.5,34.2,29.90,North,4,4.0,4.0,46,0.00,,,0.00,vanprod-2.3,2013-10-27 22:01:00,
2013-10-27 17:06:00,54.2,33.9,29.90,North,358,5.0,5.0,46,0.00,,,0.00,vanprod-2.3,2013-10-27 22:06:00,
2013-10-27 17:11:00,54.0,33.7,29.90,North,8,4.0,5.0,46,0.00,,,0.00,vanprod-2.3,2013-10-27 22:11:00,
2013-10-27 17:16:00,53.7,33.4,29.91,North,1,5.0,5.0,46,0.00,,,0.00,vanprod-2.3,2013-10-27 22:16:00,
2013-10-27 17:21:00,53.6,33.3,29.91,North,360,6.0,8.0,46,0.00,,,0.00,vanprod-2.3,2013-10-27 22:21:00,
2013-10-27 17:26:00,53.3,33.1,29.91,North,4,6.0,6.0,46,0.00,,,0.00,vanprod-2.3,2013-10-27 22:26:00,
2013-10-27 17:31:00,53.0,33.3,29.92,NE,34,6.0,6.0,47,0.00,,,0.00,vanprod-2.3,2013-10-27 22:31:00,
2013-10-27 17:36:00,52.7,33.1,29.92,NNE,15,6.0,7.0,47,0.00,,,0.00,vanprod-2.3,2013-10-27 22:36:00,
2013-10-27 17:41:00,52.3,33.2,29.92,NNE,17,5.0,5.0,48,0.00,,,0.00,vanprod-2.3,2013-10-27 22:41:00,
2013-10-27 17:46:00,52.0,32.9,29.92,NNE,14,5.0,5.0,48,0.00,,,0.00,vanprod-2.3,2013-10-27 22:46:00,
2013-10-27 17:51:00,51.4,32.9,29.93,North,352,5.0,9.0,49,0.00,,,0.00,vanprod-2.3,2013-10-27 22:51:00,
2013-10-27 17:56:00,51.1,33.1,29.93,NNE,19,5.0,5.0,50,0.00,,,0.00,vanprod-2.3,2013-10-27 22:56:00,
2013-10-27 18:01:00,50.6,33.2,29.93,North,356,6.0,6.0,51,0.00,,,0.00,vanprod-2.3,2013-10-27 23:01:00,
2013-10-27 18:06:00,50.3,33.4,29.94,North,359,5.0,6.0,52,0.00,,,0.00,vanprod-2.3,2013-10-27 23:06:00,
2013-10-27 18:11:00,49.9,33.0,29.95,North,0,4.0,4.0,52,0.00,,,0.00,vanprod-2.3,2013-10-27 23:11:00,
2013-10-27 18:16:00,49.6,33.2,29.95,North,7,4.0,7.0,53,0.00,,,0.00,vanprod-2.3,2013-10-27 23:16:00,
2013-10-27 18:21:00,49.1,33.2,29.96,North,2,5.0,5.0,54,0.00,,,0.00,vanprod-2.3,2013-10-27 23:21:00,
2013-10-27 18:26:00,48.7,33.3,29.96,North,360,4.0,4.0,55,0.00,,,0.00,vanprod-2.3,2013-10-27 23:26:00,
2013-10-27 18:31:00,48.4,33.0,29.96,North,357,5.0,5.0,55,0.00,,,0.00,vanprod-2.3,2013-10-27 23:31:00,
2013-10-27 18:36:00,48.0,32.6,29.97,North,359,5.0,8.0,55,0.00,,,0.00,vanprod-2.3,2013-10-27 23:36:00,
2013-10-27 18:41:00,47.7,32.3,29.97,North,360,6.0,6.0,55,0.00,,,0.00,vanprod-2.3,2013-10-27 23:41:00,
2013-10-27 18:46:00,47.2,31.9,29.98,North,0,4.0,4.0,55,0.00,,,0.00,vanprod-2.3,2013-10-27 23:46:00,
2013-10-27 18:51:00,46.9,32.0,29.98,NNE,12,5.0,10.0,56,0.00,,,0.00,vanprod-2.3,2013-10-27 23:51:00,
2013-10-27 18:56:00,46.8,31.9,29.98,North,6,2.0,2.0,56,0.00,,,0.00,vanprod-2.3,2013-10-27 23:56:00,
2013-10-27 19:01:00,46.3,31.9,29.98,North,6,2.0,5.0,57,0.00,,,0.00,vanprod-2.3,2013-10-28 00:01:00,
2013-10-27 19:06:00,45.9,32.0,29.99,North,353,5.0,7.0,58,0.00,,,0.00,vanprod-2.3,2013-10-28 00:06:00,
2013-10-27 19:11:00,45.6,32.1,29.99,NNW,344,3.0,3.0,59,0.00,,,0.00,vanprod-2.3,2013-10-28 00:11:00,
2013-10-27 19:16:00,45.2,31.7,30.00,North,0,2.0,2.0,59,0.00,,,0.00,vanprod-2.3,2013-10-28 00:16:00,
2013-10-27 19:21:00,44.9,31.9,30.00,North,0,2.0,2.0,60,0.00,,,0.00,vanprod-2.3,2013-10-28 00:21:00,
2013-10-27 19:26:00,44.6,32.0,30.00,North,357,3.0,3.0,61,0.00,,,0.00,vanprod-2.3,2013-10-28 00:26:00,
2013-10-27 19:31:00,44.4,31.8,30.00,North,353,1.0,2.0,61,0.00,,,0.00,vanprod-2.3,2013-10-28 00:31:00,
2013-10-27 19:36:00,44.1,31.5,30.01,North,0,2.0,0.0,61,0.00,,,0.00,vanprod-2.3,2013-10-28 00:36:00,
2013-10-27 19:41:00,43.8,31.2,30.01,NNW,346,4.0,4.0,61,0.00,,,0.00,vanprod-2.3,2013-10-28 00:41:00,
2013-10-27 19:46:00,43.7,31.5,30.02,NE,38,2.0,2.0,62,0.00,,,0.00,vanprod-2.3,2013-10-28 00:46:00,
2013-10-27 19:51:00,43.6,31.5,30.02,NNE,16,3.0,7.0,62,0.00,,,0.00,vanprod-2.3,2013-10-28 00:51:00,
2013-10-27 19:56:00,43.4,31.3,30.02,North,358,5.0,7.0,62,0.00,,,0.00,vanprod-2.3,2013-10-28 00:56:00,
2013-10-27 20:01:00,43.4,31.3,30.03,North,1,5.0,6.0,62,0.00,,,0.00,vanprod-2.3,2013-10-28 01:01:00,
2013-10-27 20:06:00,43.3,31.2,30.03,North,357,5.0,5.0,62,0.00,,,0.00,vanprod-2.3,2013-10-28 01:06:00,
2013-10-27 20:11:00,43.1,31.0,30.03,NNE,15,5.0,6.0,62,0.00,,,0.00,vanprod-2.3,2013-10-28 01:11:00,
2013-10-27 20:16:00,42.8,31.1,30.04,North,4,4.0,4.0,63,0.00,,,0.00,vanprod-2.3,2013-10-28 01:16:00,
2013-10-27 20:21:00,42.6,30.9,30.04,NNE,22,5.0,7.0,63,0.00,,,0.00,vanprod-2.3,2013-10-28 01:21:00,
2013-10-27 20:26:00,42.3,31.0,30.05,North,0,4.0,7.0,64,0.00,,,0.00,vanprod-2.3,2013-10-28 01:26:00,
2013-10-27 20:31:00,42.0,31.1,30.06,North,10,5.0,5.0,65,0.00,,,0.00,vanprod-2.3,2013-10-28 01:31:00,
2013-10-27 20:36:00,41.7,30.8,30.06,North,7,5.0,5.0,65,0.00,,,0.00,vanprod-2.3,2013-10-28 01:36:00,
2013-10-27 20:41:00,41.6,30.7,30.06,NNE,16,6.0,7.0,65,0.00,,,0.00,vanprod-2.3,2013-10-28 01:41:00,
2013-10-27 20:46:00,41.4,30.9,30.06,North,11,4.0,6.0,66,0.00,,,0.00,vanprod-2.3,2013-10-28 01:46:00,
2013-10-27 20:51:00,41.3,30.4,30.06,NNE,30,5.0,6.0,65,0.00,,,0.00,vanprod-2.3,2013-10-28 01:51:00,
2013-10-27 20:56:00,41.1,30.2,30.07,NNE,27,6.0,6.0,65,0.00,,,0.00,vanprod-2.3,2013-10-28 01:56:00,
2013-10-27 21:01:00,41.0,30.5,30.07,North,7,6.0,6.0,66,0.00,,,0.00,vanprod-2.3,2013-10-28 02:01:00,
2013-10-27 21:06:00,40.8,30.3,30.07,NE,35,5.0,5.0,66,0.00,,,0.00,vanprod-2.3,2013-10-28 02:06:00,
2013-10-27 21:11:00,40.7,30.2,30.08,NNE,19,5.0,5.0,66,0.00,,,0.00,vanprod-2.3,2013-10-28 02:11:00,
2013-10-27 21:16:00,40.4,30.3,30.08,North,1,5.0,7.0,67,0.00,,,0.00,vanprod-2.3,2013-10-28 02:16:00,
2013-10-27 21:21:00,40.1,30.0,30.09,NE,38,5.0,6.0,67,0.00,,,0.00,vanprod-2.3,2013-10-28 02:21:00,
2013-10-27 21:26:00,40.0,29.9,30.09,NNE,18,6.0,6.0,67,0.00,,,0.00,vanprod-2.3,2013-10-28 02:26:00,
2013-10-27 21:31:00,39.7,30.0,30.09,NNE,16,5.0,5.0,68,0.00,,,0.00,vanprod-2.3,2013-10-28 02:31:00,
2013-10-27 21:36:00,39.6,29.9,30.09,NNE,14,6.0,6.0,68,0.00,,,0.00,vanprod-2.3,2013-10-28 02:36:00,
2013-10-27 21:41:00,39.4,29.7,30.10,NNE,12,5.0,6.0,68,0.00,,,0.00,vanprod-2.3,2013-10-28 02:41:00,
2013-10-27 21:46:00,39.1,29.8,30.10,NNE,14,5.0,5.0,69,0.00,,,0.00,vanprod-2.3,2013-10-28 02:46:00,
2013-10-27 21:51:00,39.0,29.7,30.10,NNE,22,6.0,7.0,69,0.00,,,0.00,vanprod-2.3,2013-10-28 02:51:00,
2013-10-27 21:56:00,38.8,29.5,30.10,NNE,12,5.0,6.0,69,0.00,,,0.00,vanprod-2.3,2013-10-28 02:56:00,
2013-10-27 22:01:00,38.6,29.7,30.11,NNE,28,4.0,4.0,70,0.00,,,0.00,vanprod-2.3,2013-10-28 03:01:00,
2013-10-27 22:06:00,38.4,29.5,30.11,NNE,17,3.0,5.0,70,0.00,,,0.00,vanprod-2.3,2013-10-28 03:06:00,
2013-10-27 22:11:00,38.3,29.4,30.11,NNE,17,5.0,5.0,70,0.00,,,0.00,vanprod-2.3,2013-10-28 03:11:00,
2013-10-27 22:16:00,38.0,29.1,30.11,North,0,4.0,4.0,70,0.00,,,0.00,vanprod-2.3,2013-10-28 03:16:00,
2013-10-27 22:21:00,38.0,29.4,30.12,NNE,23,4.0,6.0,71,0.00,,,0.00,vanprod-2.3,2013-10-28 03:21:00,
2013-10-27 22:26:00,37.8,29.3,30.12,NNE,13,4.0,4.0,71,0.00,,,0.00,vanprod-2.3,2013-10-28 03:26:00,
2013-10-27 22:31:00,37.7,29.2,30.12,NNE,16,4.0,6.0,71,0.00,,,0.00,vanprod-2.3,2013-10-28 03:31:00,
2013-10-27 22:36:00,37.4,28.9,30.12,NNE,21,4.0,5.0,71,0.00,,,0.00,vanprod-2.3,2013-10-28 03:36:00,
2013-10-27 22:41:00,37.3,29.1,30.13,NNE,21,3.0,3.0,72,0.00,,,0.00,vanprod-2.3,2013-10-28 03:41:00,
2013-10-27 22:46:00,37.1,28.9,30.13,NNE,21,4.0,8.0,72,0.00,,,0.00,vanprod-2.3,2013-10-28 03:46:00,
2013-10-27 22:51:00,37.0,28.8,30.13,NNE,17,4.0,7.0,72,0.00,,,0.00,vanprod-2.3,2013-10-28 03:51:00,
2013-10-27 22:56:00,36.8,28.6,30.14,NNE,17,2.0,7.0,72,0.00,,,0.00,vanprod-2.3,2013-10-28 03:56:00,
2013-10-27 23:01:00,36.7,28.9,30.14,NNE,17,2.0,5.0,73,0.00,,,0.00,vanprod-2.3,2013-10-28 04:01:00,
2013-10-27 23:06:00,36.5,28.7,30.14,NNE,17,3.0,4.0,73,0.00,,,0.00,vanprod-2.3,2013-10-28 04:06:00,
2013-10-27 23:11:00,36.4,28.6,30.14,NNE,17,2.0,3.0,73,0.00,,,0.00,vanprod-2.3,2013-10-28 04:11:00,
2013-10-27 23:16:00,36.3,28.5,30.14,NNE,16,4.0,5.0,73,0.00,,,0.00,vanprod-2.3,2013-10-28 04:16:00,
2013-10-27 23:21:00,36.0,28.5,30.15,NNE,16,3.0,6.0,74,0.00,,,0.00,vanprod-2.3,2013-10-28 04:21:00,
2013-10-27 23:26:00,35.8,28.3,30.15,NNE,13,4.0,6.0,74,0.00,,,0.00,vanprod-2.3,2013-10-28 04:26:00,
2013-10-27 23:31:00,35.7,28.2,30.15,NNE,13,3.0,3.0,74,0.00,,,0.00,vanprod-2.3,2013-10-28 04:31:00,
2013-10-27 23:36:00,35.4,28.0,30.15,NNE,13,3.0,3.0,74,0.00,,,0.00,vanprod-2.3,2013-10-28 04:36:00,
2013-10-27 23:42:00,35.3,27.9,30.15,NNE,19,4.0,6.0,74,0.00,,,0.00,vanprod-2.3,2013-10-28 04:42:00,
2013-10-27 23:46:00,35.1,27.7,30.15,North,11,5.0,6.0,74,0.00,,,0.00,vanprod-2.3,2013-10-28 04:46:00,
2013-10-27 23:51:00,35.1,28.0,30.15,North,11,2.0,3.0,75,0.00,,,0.00,vanprod-2.3,2013-10-28 04:51:00,
2013-10-27 23:56:00,35.0,27.9,30.15,NNE,18,4.0,7.0,75,0.00,,,0.00,vanprod-2.3,2013-10-28 04:56:00,